Date String (YYYY-MM-DD hh:mm:ss) UTC,Instrument flags,Ambient pressure (hPa),Sample flow (lpm),Bypass flow (lpm),Sample temperature (°C),Ambient temperature (°C),ASC tube jacket temperature (°C),LED temperature (°C),Box temperature (°C),Sample RH (%),Span deviation,Mass concentration (μg/m³),Mass concentration (μg/m³),Mass concentration (μg/m³)
DateTimeUTC,F1_M11,P_M11,Q1_M11,Q2_M11,T1_M11,T2_M11,T3_M11,T4_M11,T5_M11,U1_M11,ZSPAN_M11,X2_M11,X0_M11,X1_M11
2022-07-25 00:00:00,,0830.9,5.00,0.00,31.4,27.8,00.0,39.6,32.2,33.2,0000.0,0004.34,0007.60,0003.85
2022-07-25 00:01:00,,0830.9,4.99,0.00,31.2,27.8,00.0,39.6,32.1,33.2,0000.0,0004.36,0007.66,0003.86
2022-07-25 00:02:00,,0830.9,5.01,0.00,31.1,27.8,00.0,39.6,32.0,33.6,0000.0,0004.38,0007.75,0003.89
2022-07-25 00:03:00,,0830.9,4.99,0.00,31.1,28.0,00.0,39.6,32.0,33.8,0000.0,0004.42,0007.82,0003.94
2022-07-25 00:04:00,,0830.9,5.01,0.00,31.0,28.1,00.0,39.5,32.1,34.0,0000.0,0004.47,0007.86,0003.98
2022-07-25 00:05:00,,0830.9,4.99,0.00,31.0,28.2,00.0,39.5,32.1,33.9,0000.0,0004.53,0007.88,0004.03
2022-07-25 00:06:00,,0830.9,5.00,0.00,30.9,28.4,00.0,39.5,32.1,34.5,0000.0,0004.57,0007.81,0004.06
2022-07-25 00:07:00,,0830.9,5.00,0.00,30.9,28.5,00.0,39.5,32.1,35.4,0000.0,0004.62,0007.82,0004.10
2022-07-25 00:08:00,,0830.9,4.99,0.00,31.1,28.6,00.0,39.5,32.3,36.3,0000.0,0004.70,0007.88,0004.17
2022-07-25 00:09:00,,0830.9,5.00,0.00,31.4,28.7,00.0,39.5,32.5,36.2,0000.0,0004.80,0008.01,0004.25
2022-07-25 00:10:00,,0830.9,5.00,0.00,31.8,28.8,00.0,39.5,32.7,35.3,0000.0,0004.93,0008.21,0004.34
2022-07-25 00:11:00,,0830.9,5.00,0.00,32.2,28.8,00.0,39.6,32.8,34.5,0000.0,0005.03,0008.28,0004.45
2022-07-25 00:12:00,,0830.9,5.00,0.00,32.5,28.9,00.0,39.6,32.8,34.3,0000.0,0005.18,0008.54,0004.57
2022-07-25 00:13:00,,0830.9,4.99,0.00,32.6,29.0,00.0,39.7,32.8,34.0,0000.0,0005.37,0008.85,0004.68
2022-07-25 00:14:00,,0830.9,5.01,0.00,32.6,28.8,00.0,39.8,32.7,33.8,0000.0,0005.51,0009.01,0004.78
2022-07-25 00:15:00,,0830.9,4.99,0.00,32.6,28.0,00.0,39.8,32.6,33.6,0000.0,0005.66,0009.22,0004.89
2022-07-25 00:16:00,,0830.9,5.00,0.00,32.6,27.4,00.0,39.8,32.5,33.6,0000.0,0005.79,0009.42,0005.02
2022-07-25 00:17:00,,0830.9,5.01,0.00,32.5,27.3,00.0,39.9,32.3,34.0,0000.0,0005.93,0009.64,0005.14
2022-07-25 00:18:00,,0830.9,4.99,0.00,32.3,27.3,00.0,40.0,32.2,34.6,0000.0,0006.03,0009.76,0005.24
2022-07-25 00:19:00,,0830.9,5.01,0.00,32.2,27.5,00.0,40.0,32.2,35.1,0000.0,0006.12,0009.91,0005.31
2022-07-25 00:20:00,,0830.9,4.98,0.00,32.2,27.7,00.0,40.0,32.3,35.2,0000.0,0006.16,0010.00,0005.32
2022-07-25 00:21:00,,0831.0,5.01,0.00,32.4,27.8,00.0,40.0,32.4,34.7,0000.0,0006.16,0010.02,0005.31
2022-07-25 00:22:00,,0831.0,4.98,0.00,32.5,28.0,00.0,40.0,32.5,34.2,0000.0,0006.10,0009.95,0005.25
2022-07-25 00:23:00,,0831.0,5.00,0.00,32.6,28.1,00.0,40.1,32.5,34.2,0000.0,0006.01,0009.95,0005.18
2022-07-25 00:24:00,,0831.0,5.01,0.00,32.5,28.3,00.0,40.1,32.5,34.1,0000.0,0005.93,0009.90,0005.12
2022-07-25 00:25:00,,0831.0,5.00,0.00,32.5,28.4,00.0,40.2,32.5,34.0,0000.0,0005.85,0009.86,0005.04
2022-07-25 00:26:00,,0831.0,5.00,0.00,32.5,28.5,00.0,40.2,32.5,34.0,0000.0,0005.79,0009.82,0004.94
2022-07-25 00:27:00,,0831.0,4.99,0.00,32.4,28.6,00.0,40.2,32.5,34.1,0000.0,0005.68,0009.63,0004.83
2022-07-25 00:28:00,,0831.1,4.99,0.00,32.4,28.7,00.0,40.3,32.5,34.0,0000.0,0005.58,0009.52,0004.73
2022-07-25 00:29:00,,0831.0,5.01,0.00,32.3,28.8,00.0,40.3,32.5,34.3,0000.0,0005.51,0009.90,0004.64
2022-07-25 00:30:00,,0831.1,4.99,0.00,32.3,28.9,00.0,40.3,32.6,34.3,0000.0,0005.42,0009.84,0004.56
2022-07-25 00:31:00,,0831.0,5.01,0.00,32.2,28.9,00.0,40.3,32.6,34.7,0000.0,0005.31,0009.71,0004.49
2022-07-25 00:32:00,,0831.0,4.99,0.00,32.2,29.0,00.0,40.3,32.6,34.9,0000.0,0005.24,0009.61,0004.44
2022-07-25 00:33:00,,0831.0,5.00,0.00,32.1,29.1,00.0,40.3,32.6,34.8,0000.0,0005.28,0009.77,0004.42
2022-07-25 00:34:00,,0831.0,5.00,0.00,32.1,29.1,00.0,40.3,32.7,35.0,0000.0,0005.31,0009.78,0004.41
2022-07-25 00:35:00,,0831.0,4.99,0.00,32.1,29.1,00.0,40.3,32.7,34.9,0000.0,0005.29,0009.62,0004.37
2022-07-25 00:36:00,,0831.0,5.01,0.00,32.2,28.3,00.0,40.2,32.7,34.9,0000.0,0005.28,0009.61,0004.35
2022-07-25 00:37:00,,0830.9,5.00,0.00,32.2,27.6,00.0,40.1,32.6,35.1,0000.0,0005.24,0009.96,0004.33
2022-07-25 00:38:00,,0830.9,5.00,0.00,32.3,27.3,00.0,40.1,32.5,34.8,0000.0,0005.22,0010.40,0004.30
2022-07-25 00:39:00,,0830.9,5.00,0.00,32.2,27.3,00.0,40.1,32.4,34.9,0000.0,0005.23,0010.49,0004.29
2022-07-25 00:40:00,,0830.9,4.99,0.00,32.2,27.5,00.0,40.1,32.3,35.0,0000.0,0005.21,0010.15,0004.26
2022-07-25 00:41:00,,0830.9,5.00,0.00,32.2,27.6,00.0,40.1,32.4,35.0,0000.0,0005.21,0010.19,0004.24
2022-07-25 00:42:00,,0830.9,5.00,0.00,32.4,27.8,00.0,40.1,32.5,35.0,0000.0,0005.26,0010.39,0004.22
2022-07-25 00:43:00,,0830.9,4.99,0.00,32.5,28.0,00.0,40.1,32.6,34.7,0000.0,0005.27,0010.47,0004.19
2022-07-25 00:44:00,,0831.0,5.01,0.00,32.6,28.1,00.0,40.2,32.6,34.7,0000.0,0005.20,0010.34,0004.15
2022-07-25 00:45:00,,0831.0,5.01,0.00,32.6,28.3,00.0,40.2,32.6,34.8,0000.0,0005.11,0010.15,0004.12
2022-07-25 00:46:00,,0831.1,5.00,0.00,32.6,28.4,00.0,40.2,32.5,34.7,0000.0,0005.08,0010.13,0004.10
2022-07-25 00:47:00,,0831.0,5.00,0.00,32.5,28.6,00.0,40.3,32.6,34.9,0000.0,0005.08,0010.20,0004.07
2022-07-25 00:48:00,,0831.1,5.00,0.00,32.5,28.7,00.0,40.3,32.6,34.8,0000.0,0005.09,0009.92,0004.05
2022-07-25 00:49:00,,0831.0,5.01,0.00,32.5,28.8,00.0,40.4,32.6,35.1,0000.0,0005.10,0009.61,0004.05
2022-07-25 00:50:00,,0831.0,4.99,0.00,32.6,28.9,00.0,40.4,32.7,35.1,0000.0,0005.06,0009.48,0004.04
2022-07-25 00:51:00,,0831.0,5.00,0.00,32.7,29.0,00.0,40.4,32.9,34.6,0000.0,0005.02,0009.40,0004.02
2022-07-25 00:52:00,,0831.0,5.01,0.00,32.8,29.0,00.0,40.5,32.9,34.5,0000.0,0005.02,0009.95,0004.01
2022-07-25 00:53:00,,0830.9,5.00,0.00,32.9,29.1,00.0,40.5,32.9,34.6,0000.0,0005.02,0009.86,0004.00
2022-07-25 00:54:00,,0830.9,5.00,0.00,32.9,29.2,00.0,40.5,32.9,34.0,0000.0,0005.05,0009.99,0003.99
2022-07-25 00:55:00,,0830.9,5.00,0.00,32.8,29.2,00.0,40.6,32.9,34.2,0000.0,0005.08,0010.16,0003.99
2022-07-25 00:56:00,,0830.9,5.01,0.00,32.8,28.7,00.0,40.5,32.9,34.4,0000.0,0005.13,0010.46,0003.99
2022-07-25 00:57:00,,0830.9,4.99,0.00,32.8,27.9,00.0,40.5,32.7,34.0,0000.0,0005.13,0010.47,0003.98
2022-07-25 00:58:00,,0831.0,5.00,0.00,32.7,27.5,00.0,40.4,32.6,34.3,0000.0,0005.12,0010.36,0004.00
2022-07-25 00:59:00,,0831.0,5.01,0.00,32.4,27.4,00.0,40.5,32.4,34.4,0000.0,0005.12,0010.19,0004.02
